Showing default

OV2-1, 1641

Orbit data source: Space-Track

OV2-1, 1641 is a payload satellite owned by USAF SSD (US) in LEO that was launched on Fri, 15 Oct 1965 UTC via a TITAN IIIC launch vehicle from the Air Force Eastern Test Range (AFETR). Payload-class satellites include a variety of spacecraft equipped with specific instruments for various scientific and technological missions. These include communications satellites like Starlink; space stations such as the ISS; scientific satellites like the Hubble; Earth observation satellites from companies like Planet Labs, Umbra, and HawkEye 360; GPS; miniature CubeSats for education and research; and military/defense satellites.

Loading next visibility...
Identifier
1641, 1965-082C
Orbit
LEO
Country
Flag of USUS
Related business
Manufacturer
Northrop
Mission
Non-operational Civil Science
Bus & Motor
OV2, Unknown motor
Mass
170 kg wet, 170 kg dry
Launch date (UTC)
1965-10-15 (60 years ago)
Launch vehicle
TITAN IIIC
Launch site
Air Force Eastern Test Range (AFETR)
Object type
Payload
Rocket body
Debris
Shape & HBR
Cyl, Unknown HBR
Radar Cross Section
0.424 m², Medium (>0.1 m² and < 1m²)

Expand to show TLE details & history
Last TLE update: 1 day ago

TLE from 1 day ago
0 OV2-1
1 01641U 65082C   25260.39837979  .00000282  00000-0  57464-4 0  9995
2 01641  32.2980  13.8322 0018870 304.3097  55.5763 14.54616932177543
Epoch: 2025-09-17T09:33Z
TLE epoch observation values (Epoch: 2025-09-17T09:33:40.013Z)
Latitude
-0.00002°
Longitude
-126.15945°
Altitude
701.737 km
Speed
7.511 km/s
True Right ascension
00h 55m 19s
True Declination
0° 00' 00"
Sunlit
Object was in full shadow at epoch
Visualization orbit readout
Latitude
Unknown
Longitude
Unknown
Altitude
Unknown
Speed
Unknown
Apparent Right ascension
Unknown
Apparent Declination
Unknown
Sunlit
N/A
Visualization observer readout
Local Sidereal Time
12:50:44
Azimuth
Unknown
Elevation
Unknown
Doppler factor
Unknown
Orbital elements
Apogee altitude
727.55 km
Perigee altitude
700.784 km
Semi-major axis
7,092.304 km
Eccentricity
0.00189
Inclination
32.298°
RAAN
13.8322°
Arg. of periapsis
304.3097°
True anomaly
55.75491°
Mean anomaly
55.5763°
Eccentric anomaly
55.66558°
Mean motion
3.63381 °/min
Orbital period
99.07 mins
BSTAR
0.000057464
Loading maneuver chart data...
Computing Atmospheric mass density...

Documentation

Showing up to 5 results
|